Location: Unspecified
(0.0000°N, 0.0000°E)
Time: 01:19:04
(UTC+00:00)

N. Korean satellite - Visible Passes

Search period start: 17 December 2018 00:00
Search period end: 27 December 2018 00:00
Orbit: 456 x 511 km, 97.2° (Epoch: 15 December)

Date Brightness Start Highest point End Pass type
(mag) Time Alt. Az. Time Alt. Az. Time Alt. Az.
17 Dec 10.2 05:05:03 10° ENE 05:06:37 12° ESE 05:08:13 10° SE visible
17 Dec 9.1 18:24:47 10° SSW 18:27:43 25° WSW 18:30:36 10° NW visible
20 Dec 9.4 05:23:10 10° NE 05:26:16 25° ESE 05:29:23 10° SSE visible
20 Dec 10.0 18:45:55 10° SW 18:47:18 12° WSW 18:48:41 10° WNW visible
21 Dec 10.5 05:01:02 10° E 05:01:46 10° ESE 05:02:30 10° ESE visible
21 Dec 8.8 18:19:44 10° SSW 18:22:48 30° W 18:25:50 10° NW visible
24 Dec 9.6 05:18:28 10° NE 05:21:22 21° ESE 05:24:16 10° SSE visible
24 Dec 9.8 18:40:27 10° SW 18:42:21 14° WSW 18:44:16 10° WNW visible
